This demonstration page uses our WeatherBlox Daily Observations layout. Learn more.

Left ArrowRight Arrow

39.51506, -84.39828

Hourly Observations for August 14, 2016

Temp ( °F °C ) Dew Point ( °F °C ) Humidity (%) Winds ( mph kmh ) Pressure ( in mb ) Visibility ( mi km ) Precip ( " mm )
12:15 am 00:15 Cloudy 74 23.6 69 20.5 83 83 SSW 6 9 29.97 1015 10 16 N/A
12:35 am 00:35 Mostly Cloudy 74 23.6 69 20.5 83 83 SSW 8 13 29.97 1015 10 16 N/A
12:55 am 00:55 Mostly Cloudy 74 23.6 69 20.6 83 83 SSW 6 9 29.97 1015 10 16 N/A
1:15 am 01:15 Cloudy 74 23.6 69 20.6 83 83 SSW 5 7 29.97 1015 10 16 N/A
1:35 am 01:35 Cloudy 74 23.6 69 20.6 83 83 SW 6 9 29.97 1015 10 16 N/A
1:55 am 01:55 Mostly Cloudy 74 23.6 69 20.5 83 83 SSW 7 11 29.97 1015 10 16 N/A
2:15 am 02:15 Partly Cloudy 74 23.6 69 20.5 83 83 SSW 6 9 29.97 1015 10 16 N/A
2:35 am 02:35 Mostly Cloudy 74 23.6 69 20.5 83 83 SW 5 7 29.97 1015 10 16 N/A
2:55 am 02:55 Partly Cloudy 74 23.6 69 20.6 83 83 SW 5 7 29.97 1015 10 16 N/A
3:15 am 03:15 Partly Cloudy 74 23.6 69 20.6 83 83 SSW 3 6 29.97 1015 10 16 N/A
3:35 am 03:35 Cloudy 74 23.6 69 20.8 84 84 SW 3 6 29.97 1015 10 16 N/A
3:55 am 03:55 Mostly Cloudy 74 23.6 70 21 85 85 SSW 3 6 29.97 1015 10 16 N/A
4:15 am 04:15 Cloudy 74 23.6 70 20.9 85 85 SSW 3 6 29.97 1015 10 16 N/A
4:35 am 04:35 Cloudy 74 23.6 69 20.7 84 84 SSW 5 7 29.97 1015 10 16 N/A
4:55 am 04:55 Cloudy 74 23.6 69 20.6 83 83 N N/A 29.97 1015 10 16 N/A
5:10 am 05:10 Cloudy 74 23.6 69 20.7 84 84 N N/A 29.97 1015 10 16 N/A
5:35 am 05:35 Cloudy 74 23.6 70 21 85 85 N N/A 29.97 1015 10 16 N/A
5:55 am 05:55 Cloudy 74 23.6 70 21 85 85 SSW 3 6 30.00 1016 10 16 N/A
6:15 am 06:15 Cloudy 74 23.6 70 21 85 85 N N/A 30.00 1016 7 11 N/A
6:35 am 06:35 Cloudy 74 23.6 70 21 85 85 N N/A 30.00 1016 7 11 N/A
6:55 am 06:55 Cloudy 74 23.6 69 20.7 84 84 S 3 6 30.00 1016 10 16 N/A
7:15 am 07:15 Cloudy 74 23.6 69 20.6 83 83 N N/A 30.00 1016 10 16 N/A
7:35 am 07:35 Cloudy with Light Rain 74 23.6 69 20.7 84 84 N N/A 30.00 1016 7 11 N/A
7:55 am 07:55 Cloudy with Light Rain 74 23.6 69 20.7 84 84 N N/A 30.03 1017 2 3 N/A
8:15 am 08:15 Cloudy 74 23.6 70 20.9 85 85 SSW 3 6 30.03 1017 10 16 N/A
8:35 am 08:35 Cloudy with Rain 74 23.6 70 20.9 85 85 N N/A 30.03 1017 3 5 N/A
8:55 am 08:55 Cloudy with Rain 74 23.6 69 20.6 83 83 WNW 3 6 30.03 1017 5 8 N/A
9:15 am 09:15 Cloudy with Rain 74 23.6 69 20.5 83 83 N N/A 30.03 1017 3 5 N/A
9:35 am 09:35 Cloudy with Heavy Rain 74 23.6 69 20.6 83 83 N N/A 30.03 1017 1 1 N/A
9:55 am 09:55 Cloudy with Light Rain 74 23.6 69 20.7 84 84 N N/A 30.06 1018 7 11 N/A
10:15 am 10:15 Cloudy with Light Rain 74 23.6 69 20.6 83 83 N N/A 30.06 1018 7 11 N/A
10:35 am 10:35 Cloudy with Rain 74 23.6 69 20.7 84 84 N 3 6 30.06 1018 5 8 N/A
10:55 am 10:55 Cloudy with Light Rain 74 23.6 70 21 85 85 N N/A 30.06 1018 4 6 N/A
11:15 am 11:15 Cloudy 74 23.6 69 20.6 83 83 N N/A 30.06 1018 7 11 N/A
11:35 am 11:35 Cloudy 74 23.6 68 20.1 81 81 NW 6 9 30.09 1019 10 16 N/A
11:55 am 11:55 Cloudy with Heavy Rain 74 23.6 68 20.2 81 81 NW 3 6 30.09 1019 5 8 N/A
12:15 pm 12:15 Cloudy with Light Rain 72 22.3 67 19.3 83 83 N N/A 30.09 1019 2 3 N/A
12:35 pm 12:35 Cloudy with Light Rain 72 22.3 67 19.6 85 85 NNE 5 7 30.09 1019 4 6 N/A
12:55 pm 12:55 Cloudy 74 23.4 69 20.6 84 84 N N/A 30.09 1019 10 16 N/A
1:15 pm 13:15 Cloudy with Light Rain 74 23.6 69 20.6 83 83 N N/A 30.09 1019 7 11 N/A
1:35 pm 13:35 Cloudy with Light Rain 74 23.6 69 20.6 83 83 N N/A 30.09 1019 10 16 N/A
1:55 pm 13:55 Cloudy with Light Rain 74 23.6 69 20.5 83 83 ESE 5 7 30.09 1019 10 16 N/A
2:15 pm 14:15 Partly Cloudy with Drizzle 74 23.6 68 19.9 80 80 N N/A 30.09 1019 10 16 N/A
2:35 pm 14:35 Mostly Cloudy with Light Rain 74 23.6 68 20 80 80 N N/A 30.09 1019 10 16 N/A
2:55 pm 14:55 Cloudy with Rain 74 23.6 68 19.8 79 79 N N/A 30.06 1018 5 8 N/A
3:15 pm 15:15 Mostly Cloudy with Light Rain 74 23.6 68 20.1 81 81 N N/A 30.06 1018 7 11 N/A
3:35 pm 15:35 Partly Cloudy 77 24.8 70 21.1 80 80 N N/A 30.06 1018 10 16 N/A
3:55 pm 15:55 Partly Cloudy 77 25.1 70 21.1 79 79 N N/A 30.06 1018 10 16 N/A
4:15 pm 16:15 Partly Cloudy 77 25.1 69 20.6 76 76 WNW 3 6 30.06 1018 10 16 N/A
4:35 pm 16:35 Mostly Cloudy 77 25.1 70 20.9 78 78 N N/A 30.06 1018 10 16 N/A
4:55 pm 16:55 Partly Cloudy 80 26.4 71 21.7 75 75 N N/A 30.06 1018 10 16 N/A
5:15 pm 17:15 Sunny 80 26.5 71 21.6 75 75 N N/A 30.06 1018 10 16 N/A
5:35 pm 17:35 Sunny 80 26.5 71 21.7 75 75 SSW 3 6 30.06 1018 10 16 N/A
5:55 pm 17:55 Sunny 80 26.5 71 21.6 75 75 N N/A 30.06 1018 10 16 N/A
6:15 pm 18:15 Sunny 80 26.5 71 21.8 75 75 N N/A 30.06 1018 10 16 N/A
6:35 pm 18:35 Sunny 80 26.5 72 22 76 76 W 3 6 30.06 1018 10 16 N/A
6:55 pm 18:55 Partly Cloudy 80 26.5 72 22.1 77 77 NW 3 6 30.06 1018 10 16 N/A
7:15 pm 19:15 Partly Cloudy with Drizzle 79 25.9 71 21.8 78 78 N N/A 30.06 1018 10 16 N/A
7:35 pm 19:35 Sunny 78 25.3 70 21.1 78 78 N N/A 30.06 1018 10 16 N/A
7:55 pm 19:55 Sunny 79 26.1 71 21.6 76 76 N N/A 30.06 1018 10 16 N/A
8:15 pm 20:15 Sunny 78 25.5 69 20.8 75 75 N N/A 30.06 1018 10 16 N/A
8:35 pm 20:35 Clear 77 25.1 70 21 78 78 N N/A 30.06 1018 10 16 N/A
8:55 pm 20:55 Clear 77 25.1 72 22 83 83 N N/A 30.09 1019 10 16 N/A
9:15 pm 21:15 Clear 74 23.6 69 20.7 84 84 N N/A 30.09 1019 10 16 N/A
9:35 pm 21:35 Clear 74 23.6 70 21 85 85 N N/A 30.09 1019 10 16 N/A
9:55 pm 21:55 Clear 74 23.6 70 20.9 85 85 N N/A 30.09 1019 7 11 N/A
10:15 pm 22:15 Hazy 74 23.6 70 21 85 85 N N/A 30.09 1019 4 6 N/A
10:35 pm 22:35 Clear 74 23.6 70 21 85 85 N N/A 30.12 1020 10 16 N/A
10:55 pm 22:55 Clear 74 23.6 70 21 85 85 N N/A 30.09 1019 10 16 N/A
11:15 pm 23:15 Clear 74 23.6 70 20.9 85 85 N N/A 30.09 1019 10 16 N/A
11:35 pm 23:35 Clear 74 23.6 70 21 85 85 N N/A 30.09 1019 10 16 N/A
11:55 pm 23:55 Clear 74 23.6 70 21 85 85 N N/A 30.12 1020 10 16 N/A

Powered by AerisWeather